This is the latest recevied weather packets stored in our database for station/object WX2NJ. If no packets are shown the sender has not sent any weather packets the latest 10 day(s).
| Time | Temp. | Humidity | Pressure | Rain* | Wind** | Luminosity | Snow |
|---|---|---|---|---|---|---|---|
| 1777915011 | 23.33° C | 28% | 1015.6 hPa | 0 mm | - | 598 W/m² | - |
| 1777914709 | 23.33° C | 28% | 1015.8 hPa | 0 mm | - | 690 W/m² | - |
| 1777914405 | 22.78° C | 27% | 1015.8 hPa | 0 mm | - | 640 W/m² | - |
| 1777914103 | 22.78° C | 27% | 1015.9 hPa | 0 mm | - | 755 W/m² | - |
| 1777913798 | 23.33° C | 28% | 1015.9 hPa | 0 mm | - | 758 W/m² | - |
| 1777913495 | 22.78° C | 29% | 1016 hPa | 0 mm | - | 506 W/m² | - |
| 1777913192 | 22.78° C | 30% | 1016.1 hPa | 0 mm | - | 365 W/m² | - |
| 1777912888 | 22.78° C | 25% | 1016.3 hPa | 0 mm | - | 349 W/m² | - |
| 1777912585 | 22.78° C | 26% | 1016.2 hPa | 0 mm | - | 198 W/m² | - |
| 1777912281 | 22.78° C | 29% | 1016.4 hPa | 0 mm | - | 800 W/m² | - |
| 1777911977 | 22.22° C | 26% | 1016.4 hPa | 0 mm | - | 728 W/m² | - |
| 1777911673 | 22.78° C | 26% | 1016.5 hPa | 0 mm | - | 630 W/m² | - |
| 1777911369 | 22.78° C | 29% | 1016.3 hPa | 0 mm | - | 674 W/m² | - |
| 1777911068 | 22.22° C | 29% | 1016.5 hPa | 0 mm | - | 656 W/m² | - |
| 1777910765 | 22.78° C | 28% | 1016.6 hPa | 0 mm | - | 699 W/m² | - |
| 1777910461 | 21.67° C | 29% | 1016.7 hPa | 0 mm | - | 582 W/m² | - |
| 1777910157 | 21.67° C | 29% | 1016.8 hPa | 0 mm | - | 242 W/m² | - |
| 1777909855 | 22.22° C | 25% | 1016.8 hPa | 0 mm | - | 328 W/m² | - |
| 1777909552 | 22.22° C | 28% | 1017 hPa | 0 mm | - | 250 W/m² | - |
| 1777909249 | 21.67° C | 29% | 1016.7 hPa | 0 mm | - | 240 W/m² | - |
| 1777908947 | 21.67° C | 31% | 1016.9 hPa | 0 mm | - | 232 W/m² | - |
| 1777908645 | 21.67° C | 33% | 1016.8 hPa | 0 mm | - | 81 W/m² | - |
| 1777908342 | 21.11° C | 32% | 1017 hPa | 0 mm | - | 214 W/m² | - |
| 1777908038 | 21.67° C | 32% | 1016.9 hPa | 0 mm | - | 208 W/m² | - |
| 1777907733 | 21.67° C | 32% | 1017.3 hPa | 0 mm | - | 204 W/m² | - |
* Rain latest hour (hover to see other rain measurements)
** Current wind speed in m/s (hover to see current wind gust speed)